Home > Weather > Sidney > Past weeks

Flag for Canada Past Weather in Sidney, British Columbia, Canada — Yesterday and Last 2 Weeks

Now
72 °F

Partly sunny.


Feels Like: 77 °F
Forecast: 58 / 71 °F
Wind: 8 mph from Southeast

Location: Victoria Int. Airportb. C.

Current Time: Aug 26, 2016 at 6:23:11 PM

Latest Report: Aug 26, 2016 at 6:00 PM


Visibility: 30 mi

Pressure: 29.79 "Hg

Humidity: 50%

Dew Point: 52 °F

Location of SidneyLocation

Past Weather in Sidney — Graph

°F

Sidney Temperature Yesterday

Maximum temperature yesterday: 88 °F (at 5:00 PM)
Minimum temperature yesterday: 59 °F (at 3:00 AM)
Average temperature yesterday: 72 °F

High & Low Weather Summary for the Past Weeks

 TemperatureHumidityPressure
High90 °F (Aug 18, 4:00 PM)94% (Aug 12, 2:00 AM)30.26 "Hg (Aug 12, 2:00 AM)
Low54 °F (Aug 17, 4:00 AM)20% (Aug 19, 6:00 PM)29.77 "Hg (Aug 21, 5:00 AM)
Average68 °F64%30.03 "Hg
* Reported Aug 11 5:00 PM — Aug 26 5:00 PM, Sidney, Weather by CustomWeather, © 2016

Note: Actual official high and low records may vary slightly from our data, if they occured in-between our weather recording intervals... More about our weather records

Advertising

Sidney Weather History for the Previous 24 Hours

Scroll right to see more
 ConditionsComfort  
Time TempWeatherWind HumidityBarometerVisibility
5:00 PM
Fri, Aug 26
77 °FPartly sunny.7 mph42%29.81 "Hg30 mi
4:00 PM79 °FPartly sunny.9 mph42%29.83 "Hg30 mi
3:00 PM79 °FPartly sunny.8 mph39%29.86 "Hg30 mi
2:00 PM79 °FPartly sunny.6 mph42%29.88 "Hg30 mi
1:00 PM79 °FPartly sunny.7 mph42%29.90 "Hg30 mi
12:00 PM79 °FPartly sunny.7 mph45%29.91 "Hg30 mi
11:00 AM77 °FPartly sunny.7 mph44%29.92 "Hg30 mi
10:00 AM75 °FPartly sunny.2 mph44%29.93 "Hg30 mi
9:00 AM68 °FPartly sunny.3 mph53%29.95 "Hg30 mi
8:00 AM64 °FPartly sunny.6 mph64%29.95 "Hg30 mi
7:00 AM63 °FPassing clouds.6 mph68%29.95 "Hg30 mi
6:00 AM61 °FPassing clouds.6 mph72%29.95 "Hg30 mi
5:00 AM64 °FPassing clouds.7 mph64%29.95 "Hg30 mi
4:00 AM64 °FPassing clouds.12 mph68%29.95 "Hg30 mi
3:00 AM63 °FPassing clouds.7 mph68%29.95 "Hg30 mi
2:00 AM63 °FPassing clouds.5 mph64%29.96 "Hg30 mi
1:00 AM63 °FClear.3 mph68%29.96 "Hg30 mi
12:00 AM68 °FClear.6 mph56%29.95 "Hg30 mi
11:00 PM
Thu, Aug 25
70 °FPassing clouds.5 mph53%29.95 "Hg30 mi
10:00 PM72 °FPassing clouds.3 mph61%29.96 "Hg30 mi
9:00 PM72 °FPassing clouds.3 mph57%29.96 "Hg30 mi
8:00 PM79 °FPassing clouds.2 mph37%29.96 "Hg30 mi
7:00 PM84 °FPassing clouds.3 mph33%29.96 "Hg30 mi
6:00 PM86 °FPassing clouds.6 mph33%29.98 "Hg30 mi
Weather by CustomWeather, © 2016

See weather overviewHow to use our weather pages